Weather in Rymnikskiy

Russia / Chelyabinsk Oblast     52°30′05″N   60°08′50″E
temp.,
°C
wind,
m/s
gust,
m/s
humid.,
%
clouds,
%
prec.,
mm/h
press.,
hPa
HPBL,
m
14 june, mon
mon1423:00+19se48385 0.0 1021128
02:00+17se4937100 0.0 1021137
05:00+16se41242100 0.0 1022219
08:00+21s51241100 0.0 1023470
11:00+26s672646 0.0 10231842
14:00+28s562190 0.0 10222749
17:00+28ssw552392 0.0 10212744
20:00+24s35373 0.0 102179
15 june, tue
tue1523:00+20s45412 0.0 102147
02:00+18s334648 0.0 102034
05:00+18s33515 0.0 102028
08:00+24s35415 0.0 1020281
11:00+28ssw44295 0.0 10192832
14:00+30ssw342582 0.0 10173470
17:00+30sw232525 0.0 10171733
20:00+26s113589 0.0 101621
16 june, wed
wed1623:00+22se224225 0.0 101612
02:00+20s22435 0.0 101612
05:00+21s344188 0.0 101653
08:00+26s463891 0.0 1016218
11:00+29ssw453062 0.0 10151150
14:00+30sw652690 0.0 10142824
17:00+27wnw453699 0.0 1014494
20:00+25ene234592 0.0 101332
17 june, thu
thu1723:00+22s374881 0.0 1014107
02:00+21se354890 0.0 101280
05:00+19se475781 0.5 101092
08:00+24s51048100 0.2 1009427
11:00+29sw8122969 0.2 10061406
14:00+31wsw811293 0.0 10052621
17:00+28w11124471 0.0 10041799
20:00+23wnw8116490 0.0 1005985
18 june, fri
fri1823:00+18nw61277100 0.0 1007567
02:00+16n81269100 0.0 1008712
05:00+14nne81167100 0.0 1010921
08:00+13nne9115825 0.0 1012822
11:00+17nne911360 0.0 10121300
14:00+19nne911260 0.0 10131923
17:00+20n810265 0.0 10142514
20:00+17n711343 0.0 1015711